• în Republica Moldova
  • Lista ţărilor
  • Pe 7 zile
  • Temperatura apei
  • Hartă satelitară
  • Meteo pe hartă
  • Widget-uri
  • user-avatar
    Intrare

    Meteo pe oră la Naroevo

    Astăzi, 22 Octombrie, Luni

    Timp Temperatura Precipitaţii Vânt Presiune Umiditate
    00:00 +5°C° 0 mm 5 m/s 761 mmHg 87%
    01:00 +5°C° 0 mm 5 m/s 761 mmHg 87%
    02:00 +4°C° 0 mm 7 m/s 760 mmHg 86%
    03:00 +5°C° 0 mm 7 m/s 760 mmHg 86%
    04:00 +5°C° 0 mm 6 m/s 759 mmHg 87%
    05:00 +5°C° 0 mm 6 m/s 758 mmHg 88%
    06:00 +5°C° 0 mm 7 m/s 758 mmHg 87%
    07:00 +6°C° 0 mm 7 m/s 757 mmHg 86%
    08:00 +6°C° 0 mm 8 m/s 756 mmHg 85%
    09:00 +6°C° 0.2 mm 7 m/s 756 mmHg 85%
    10:00 +6°C° 0.2 mm 7 m/s 755 mmHg 85%
    11:00 +8°C° 0.2 mm 7 m/s 755 mmHg 85%
    12:00 +8°C° 0.3 mm 6 m/s 754 mmHg 86%
    13:00 +8°C° 0.3 mm 6 m/s 754 mmHg 86%
    14:00 +8°C° 0 mm 5 m/s 754 mmHg 88%
    15:00 +8°C° 0.5 mm 5 m/s 754 mmHg 88%
    16:00 +8°C° 0.5 mm 5 m/s 753 mmHg 88%
    17:00 +8°C° 0.5 mm 5 m/s 753 mmHg 89%
    18:00 +8°C° 0.1 mm 5 m/s 753 mmHg 87%
    19:00 +7°C° 0.1 mm 5 m/s 753 mmHg 86%
    20:00 +7°C° 0.1 mm 5 m/s 753 mmHg 85%
    21:00 +6°C° 0 mm 5 m/s 753 mmHg 85%
    22:00 +6°C° 0 mm 5 m/s 753 mmHg 85%
    23:00 +5°C° 0 mm 4 m/s 753 mmHg 85%

    Mâine, 23 Octombrie, Marţi

    Timp Temperatura Precipitaţii Vânt Presiune Umiditate
    00:00 +4°C° 0 mm 4 m/s 753 mmHg 85%
    01:00 +4°C° 0 mm 4 m/s 753 mmHg 85%
    02:00 +4°C° 0 mm 4 m/s 752 mmHg 85%
    03:00 +3°C° 0 mm 4 m/s 752 mmHg 86%
    04:00 +3°C° 0 mm 4 m/s 751 mmHg 87%
    05:00 +3°C° 0 mm 4 m/s 751 mmHg 88%
    06:00 +3°C° 0 mm 4 m/s 750 mmHg 88%
    07:00 +3°C° 0 mm 4 m/s 749 mmHg 89%
    08:00 +3°C° 0 mm 4 m/s 749 mmHg 89%
    09:00 +4°C° 0 mm 4 m/s 748 mmHg 85%
    10:00 +5°C° 0 mm 5 m/s 747 mmHg 82%
    11:00 +6°C° 0 mm 5 m/s 746 mmHg 78%
    12:00 +6°C° 0.1 mm 5 m/s 744 mmHg 77%
    13:00 +5°C° 0.1 mm 6 m/s 743 mmHg 77%
    14:00 +5°C° 0.1 mm 6 m/s 742 mmHg 77%
    15:00 +5°C° 0.3 mm 6 m/s 740 mmHg 77%
    16:00 +4°C° 0.3 mm 7 m/s 739 mmHg 78%
    17:00 +4°C° 0.3 mm 7 m/s 738 mmHg 78%
    18:00 +4°C° 0.6 mm 7 m/s 737 mmHg 79%
    19:00 +4°C° 0.6 mm 7 m/s 736 mmHg 80%
    20:00 +4°C° 0.6 mm 6 m/s 734 mmHg 81%
    21:00 +3°C° 0.9 mm 6 m/s 734 mmHg 83%
    22:00 +3°C° 0.9 mm 6 m/s 733 mmHg 84%
    23:00 +3°C° 0.9 mm 6 m/s 732 mmHg 86%

    Poimâine, 24 Octombrie, Miercuri

    Timp Temperatura Precipitaţii Vânt Presiune Umiditate
    00:00 +3°C° 0.8 mm 5 m/s 731 mmHg 87%
    01:00 +3°C° 0.8 mm 5 m/s 731 mmHg 88%
    02:00 +4°C° 0.8 mm 4 m/s 730 mmHg 90%
    03:00 +4°C° 0.5 mm 4 m/s 730 mmHg 90%
    04:00 +4°C° 0.5 mm 3 m/s 730 mmHg 91%
    05:00 +4°C° 0.5 mm 3 m/s 729 mmHg 92%
    06:00 +4°C° 0.3 mm 3 m/s 730 mmHg 91%
    07:00 +4°C° 0.3 mm 3 m/s 730 mmHg 91%
    08:00 +4°C° 0.3 mm 3 m/s 730 mmHg 91%
    09:00 +4°C° 0.1 mm 3 m/s 731 mmHg 90%
    10:00 +4°C° 0.1 mm 4 m/s 732 mmHg 88%
    11:00 +5°C° 0.1 mm 4 m/s 733 mmHg 86%
    12:00 +5°C° 0.2 mm 4 m/s 733 mmHg 85%
    13:00 +5°C° 0.2 mm 5 m/s 734 mmHg 85%
    14:00 +5°C° 0.2 mm 5 m/s 735 mmHg 84%
    15:00 +5°C° 0.2 mm 5 m/s 736 mmHg 83%
    16:00 +3°C° 0.2 mm 5 m/s 737 mmHg 83%
    17:00 +3°C° 0.2 mm 5 m/s 738 mmHg 83%
    18:00 +3°C° 0.1 mm 5 m/s 739 mmHg 83%
    19:00 +2°C° 0.1 mm 5 m/s 739 mmHg 84%
    20:00 +2°C° 0.1 mm 5 m/s 740 mmHg 84%
    21:00 +3°C° 0 mm 4 m/s 741 mmHg 86%
    22:00 +1°C° 0 mm 4 m/s 741 mmHg 88%
    23:00 +1°C° 0 mm 4 m/s 742 mmHg 90%

    25 Octombrie, Joi

    Timp Temperatura Precipitaţii Vânt Presiune Umiditate
    00:00 +2°C° 0 mm 3 m/s 742 mmHg 90%
    01:00 +1°C° 0 mm 3 m/s 742 mmHg 91%
    02:00 +1°C° 0 mm 3 m/s 742 mmHg 91%
    03:00 +1°C° 0 mm 3 m/s 742 mmHg 92%
    04:00 +1°C° 0 mm 3 m/s 742 mmHg 93%
    05:00 +1°C° 0 mm 3 m/s 742 mmHg 93%
    06:00 +1°C° 0 mm 3 m/s 742 mmHg 94%
    07:00 +1°C° 0 mm 3 m/s 742 mmHg 94%
    08:00 +1°C° 0 mm 3 m/s 742 mmHg 94%
    09:00 +2°C° 0 mm 3 m/s 741 mmHg 89%
    10:00 +3°C° 0 mm 3 m/s 741 mmHg 84%
    11:00 +5°C° 0 mm 3 m/s 741 mmHg 79%
    12:00 +5°C° 0.1 mm 3 m/s 741 mmHg 77%
    13:00 +5°C° 0.1 mm 3 m/s 741 mmHg 74%
    14:00 +5°C° 0.1 mm 3 m/s 740 mmHg 72%
    15:00 +5°C° 0 mm 2 m/s 741 mmHg 77%
    16:00 +4°C° 0 mm 2 m/s 741 mmHg 81%
    17:00 +3°C° 0 mm 2 m/s 741 mmHg 86%
    18:00 +3°C° 0 mm 2 m/s 741 mmHg 88%
    19:00 +3°C° 0 mm 2 m/s 741 mmHg 90%
    20:00 +2°C° 0 mm 2 m/s 741 mmHg 92%
    21:00 +2°C° 0 mm 2 m/s 741 mmHg 92%
    22:00 +1°C° 0 mm 3 m/s 742 mmHg 93%
    23:00 +1°C° 0 mm 3 m/s 742 mmHg 93%

    26 Octombrie, Vineri

    Timp Temperatura Precipitaţii Vânt Presiune Umiditate
    00:00 +1°C° 0 mm 3 m/s 742 mmHg 93%
    01:00 +1°C° 0 mm 3 m/s 742 mmHg 93%
    02:00 +1°C° 0 mm 3 m/s 742 mmHg 92%
    03:00 +1°C° 0 mm 3 m/s 743 mmHg 92%
    04:00 +1°C° 0 mm 3 m/s 743 mmHg 91%
    05:00 0°C° 0 mm 4 m/s 743 mmHg 91%
    06:00 0°C° 0 mm 4 m/s 743 mmHg 91%
    07:00 0°C° 0 mm 4 m/s 743 mmHg 91%
    08:00 0°C° 0 mm 4 m/s 743 mmHg 91%
    09:00 +1°C° 0 mm 4 m/s 744 mmHg 86%
    10:00 +3°C° 0 mm 4 m/s 744 mmHg 81%
    11:00 +3°C° 0 mm 5 m/s 744 mmHg 76%
    12:00 +3°C° 0.1 mm 5 m/s 744 mmHg 74%
    13:00 +3°C° 0.1 mm 5 m/s 745 mmHg 73%
    14:00 +5°C° 0.1 mm 5 m/s 745 mmHg 71%
    15:00 +4°C° 0 mm 4 m/s 745 mmHg 73%
    16:00 +3°C° 0 mm 4 m/s 746 mmHg 76%
    17:00 +1°C° 0 mm 4 m/s 746 mmHg 79%
    18:00 +2°C° 0 mm 3 m/s 747 mmHg 81%
    19:00 +1°C° 0 mm 3 m/s 747 mmHg 84%
    20:00 +1°C° 0 mm 3 m/s 748 mmHg 86%
    21:00 +1°C° 0 mm 2 m/s 748 mmHg 88%
    22:00 +1°C° 0 mm 2 m/s 748 mmHg 89%
    23:00 +1°C° 0 mm 2 m/s 749 mmHg 91%

    27 Octombrie, Sâmbătă

    Timp Temperatura Precipitaţii Vânt Presiune Umiditate
    00:00 -1°C° 0 mm 2 m/s 749 mmHg 91%
    01:00 +1°C° 0 mm 1 m/s 749 mmHg 91%
    02:00 +1°C° 0 mm 1 m/s 749 mmHg 92%
    03:00 +1°C° 0 mm 2 m/s 749 mmHg 91%
    04:00 +1°C° 0 mm 2 m/s 748 mmHg 90%
    05:00 0°C° 0 mm 3 m/s 748 mmHg 89%
    06:00 +1°C° 0.3 mm 3 m/s 748 mmHg 88%
    07:00 0°C° 0.3 mm 4 m/s 747 mmHg 86%
    08:00 +1°C° 0.3 mm 5 m/s 746 mmHg 85%
    09:00 +1°C° 1 mm 5 m/s 746 mmHg 86%
    10:00 +2°C° 1 mm 6 m/s 745 mmHg 86%
    11:00 +2°C° 1 mm 6 m/s 744 mmHg 87%
    12:00 +3°C° 1.1 mm 6 m/s 744 mmHg 88%
    13:00 +3°C° 1.1 mm 6 m/s 743 mmHg 88%
    14:00 +4°C° 1.1 mm 6 m/s 742 mmHg 89%
    15:00 +5°C° 0.7 mm 5 m/s 742 mmHg 90%
    16:00 +6°C° 0.7 mm 5 m/s 742 mmHg 90%
    17:00 +6°C° 0.7 mm 5 m/s 742 mmHg 91%
    18:00 +6°C° 0.1 mm 5 m/s 742 mmHg 90%
    19:00 +5°C° 0.1 mm 4 m/s 743 mmHg 90%
    20:00 +5°C° 0.1 mm 4 m/s 743 mmHg 89%
    21:00 +4°C° 0 mm 4 m/s 744 mmHg 89%
    22:00 +4°C° 0 mm 4 m/s 744 mmHg 90%
    23:00 +4°C° 0 mm 4 m/s 745 mmHg 90%

    28 Octombrie, Duminică

    Timp Temperatura Precipitaţii Vânt Presiune Umiditate
    00:00 +3°C° 0 mm 3 m/s 745 mmHg 91%
    01:00 +3°C° 0 mm 3 m/s 745 mmHg 92%
    02:00 +3°C° 0 mm 3 m/s 746 mmHg 93%
    03:00 +2°C° 0 mm 3 m/s 746 mmHg 93%
    04:00 +2°C° 0 mm 3 m/s 746 mmHg 94%
    05:00 +2°C° 0 mm 3 m/s 746 mmHg 94%
    06:00 +3°C° 0 mm 2 m/s 746 mmHg 94%
    07:00 +3°C° 0 mm 2 m/s 746 mmHg 94%
    08:00 +2°C° 0 mm 2 m/s 747 mmHg 94%
    09:00 +3°C° 0 mm 2 m/s 747 mmHg 90%
    10:00 +4°C° 0 mm 2 m/s 747 mmHg 86%
    11:00 +5°C° 0 mm 2 m/s 747 mmHg 83%
    12:00 +6°C° 0 mm 2 m/s 747 mmHg 83%
    13:00 +6°C° 0 mm 2 m/s 747 mmHg 83%
    14:00 +6°C° 0 mm 2 m/s 746 mmHg 84%
    15:00 +5°C° 0 mm 2 m/s 746 mmHg 86%
    16:00 +5°C° 0 mm 2 m/s 747 mmHg 89%
    17:00 +4°C° 0 mm 2 m/s 747 mmHg 92%
    18:00 +4°C° 0.2 mm 2 m/s 746 mmHg 92%
    19:00 +4°C° 0.2 mm 2 m/s 746 mmHg 93%
    20:00 +5°C° 0.2 mm 1 m/s 746 mmHg 93%
    21:00 +5°C° 0.5 mm 1 m/s 746 mmHg 94%
    22:00 +5°C° 0.5 mm 1 m/s 747 mmHg 94%
    23:00 +5°C° 0.5 mm 1 m/s 747 mmHg 94%
    Arată mai mult